FW7023 Weather Reports


Display with metric or nautical units.
time (UTC)temp
F
wind
direction
speed
MPH
gust
MPH
rain 1hr
in
rain 24hr
in
rain mn
in
humidity
%
barometer
mb
20260905215359 98 97 1.0 1.0 0.00 0.00 0.00 44 1011.5
20260905214855 98 173 0.0 0.0 0.00 0.00 0.00 45 1011.6
20260905214350 98 123 0.0 1.0 0.00 0.00 0.00 45 1011.5
20260905213845 98 140 1.0 1.0 0.00 0.00 0.00 45 1011.7
20260905213341 99 84 3.0 3.0 0.00 0.00 0.00 44 1011.7
20260905212836 99 152 2.0 2.0 0.00 0.00 0.00 44 1012.1
20260905212335 99 171 1.0 1.0 0.00 0.00 0.00 46 1011.9
20260905211830 98 171 0.0 0.0 0.00 0.00 0.00 46 1011.9
20260905211326 98 60 3.0 3.0 0.00 0.00 0.00 46 1011.8
20260905210822 98 61 2.0 3.0 0.00 0.00 0.00 46 1012.1
20260905210322 98 129 2.0 2.0 0.00 0.00 0.00 45 1012.0
20260905205821 97 134 1.0 2.0 0.00 0.00 0.00 46 1012.0
20260905205315 98 75 4.0 5.0 0.00 0.00 0.00 46 1011.9
20260905204815 98 120 2.0 2.0 0.00 0.00 0.00 47 1012.1
20260905204311 98 146 1.0 1.0 0.00 0.00 0.00 47 1012.1
20260905203810 98 58 1.0 1.0 0.00 0.00 0.00 47 1012.3
20260905203306 98 75 2.0 5.0 0.00 0.00 0.00 46 1012.0
20260905202801 97 149 0.0 1.0 0.00 0.00 0.00 47 1012.2
20260905202256 97 141 1.0 1.0 0.00 0.00 0.00 48 1012.3
20260905201751 96 152 2.0 2.0 0.00 0.00 0.00 48 1012.6
20260905201246 96 129 1.0 1.0 0.00 0.00 0.00 49 1012.6
20260905200741 97 147 0.0 0.0 0.00 0.00 0.00 48 1012.6
20260905200237 97 117 2.0 2.0 0.00 0.00 0.00 47 1012.7
20260905195735 98 161 1.0 1.0 0.00 0.00 0.00 46 1012.5
20260905195230 98 90 1.0 2.0 0.00 0.00 0.00 44 1012.7
20260905194726 98 60 2.0 2.0 0.00 0.00 0.00 42 1012.6
20260905194225 100 96 1.0 1.0 0.00 0.00 0.00 42 1012.8
20260905193719 100 161 0.0 0.0 0.00 0.00 0.00 41 1012.9
20260905193214 100 104 1.0 1.0 0.00 0.00 0.00 40 1012.6
20260905192710 101 122 2.0 2.0 0.00 0.00 0.00 41 1013.0
20260905192206 101 171 0.0 0.0 0.00 0.00 0.00 39 1013.1
20260905191705 100 170 0.0 1.0 0.00 0.00 0.00 43 1013.1
20260905191203 100 160 0.0 0.0 0.00 0.00 0.00 43 1013.2
20260905190702 101 102 1.0 1.0 0.00 0.00 0.00 42 1013.0
20260905190201 101 186 2.0 2.0 0.00 0.00 0.00 40 1013.1
20260905185700 101 168 0.0 0.0 0.00 0.00 0.00 39 1013.4
20260905185155 103 175 0.0 0.0 0.00 0.00 0.00 38 1013.4
20260905184655 103 174 1.0 1.0 0.00 0.00 0.00 37 1013.2
20260905184154 101 175 0.0 0.0 0.00 0.00 0.00 40 1013.2
20260905183648 100 175 0.0 0.0 0.00 0.00 0.00 39 1013.4
20260905183143 100 166 0.0 0.0 0.00 0.00 0.00 41 1013.4
20260905182642 100 169 0.0 0.0 0.00 0.00 0.00 42 1013.6
20260905182142 100 151 1.0 1.0 0.00 0.00 0.00 41 1013.5
20260905181638 100 172 0.0 0.0 0.00 0.00 0.00 42 1013.7
20260905181137 100 173 1.0 2.0 0.00 0.00 0.00 41 1013.6
20260905180632 98 181 0.0 0.0 0.00 0.00 0.00 44 1013.6
20260905180127 98 132 1.0 1.0 0.00 0.00 0.00 44 1013.9
20260905175626 99 149 0.0 0.0 0.00 0.00 0.00 45 1013.9
20260905175122 99 150 1.0 1.0 0.00 0.00 0.00 45 1014.1
20260905174617 99 138 0.0 0.0 0.00 0.00 0.00 44 1013.8
20260905174112 100 175 0.0 0.0 0.00 0.00 0.00 41 1014.1
20260905173609 100 169 0.0 0.0 0.00 0.00 0.00 42 1014.1
20260905173104 100 182 1.0 2.0 0.00 0.00 0.00 40 1014.3
20260905172603 99 210 1.0 2.0 0.00 0.00 0.00 42 1014.3
20260905172058 98 177 1.0 1.0 0.00 0.00 0.00 44 1014.3
20260905171554 98 199 1.0 2.0 0.00 0.00 0.00 44 1014.5
20260905171050 98 192 1.0 1.0 0.00 0.00 0.00 46 1014.6
20260905170547 98 189 0.0 0.0 0.00 0.00 0.00 45 1014.5
20260905170041 98 168 0.0 0.0 0.00 0.00 0.00 48 1014.6
20260905165536 98 165 0.0 0.0 0.00 0.00 0.00 48 1014.6
20260905165031 98 169 0.0 0.0 0.00 0.00 0.00 47 1014.6
20260905164526 97 171 0.0 0.0 0.00 0.00 0.00 49 1014.8
20260905164021 95 169 0.0 1.0 0.00 0.00 0.00 50 1014.6
20260905163517 96 204 3.0 5.0 0.00 0.00 0.00 49 1014.9
20260905163013 95 172 0.0 1.0 0.00 0.00 0.00 50 1014.6
20260905162508 96 131 1.0 1.0 0.00 0.00 0.00 50 1014.4
20260905162003 97 149 0.0 1.0 0.00 0.00 0.00 48 1014.4
20260905161503 98 167 0.0 0.0 0.00 0.00 0.00 46 1014.4
20260905161000 97 128 0.0 0.0 0.00 0.00 0.00 48 1014.4
20260905160454 97 166 0.0 0.0 0.00 0.00 0.00 48 1014.8
20260905155954 96 152 0.0 0.0 0.00 0.00 0.00 49 1014.5
20260905155449 96 139 0.0 0.0 0.00 0.00 0.00 48 1014.4
20260905154947 96 173 0.0 0.0 0.00 0.00 0.00 47 1014.5
20260905154442 95 196 1.0 1.0 0.00 0.00 0.00 48 1014.2
20260905153938 95 161 0.0 0.0 0.00 0.00 0.00 49 1014.3
20260905153434 93 162 0.0 0.0 0.00 0.00 0.00 52 1014.4
20260905152933 91 157 0.0 0.0 0.00 0.00 0.00 59 1014.4
20260905152433 89 161 0.0 0.0 0.00 0.00 0.00 63 1014.3
20260905151928 89 160 0.0 0.0 0.00 0.00 0.00 66 1014.5
20260905151424 89 159 0.0 0.0 0.00 0.00 0.00 66 1014.4
20260905150924 87 162 0.0 0.0 0.00 0.00 0.00 68 1014.4
20260905150419 87 155 0.0 0.0 0.00 0.00 0.00 69 1014.3
20260905145915 87 156 0.0 0.0 0.00 0.00 0.00 68 1014.2
20260905145410 87 154 0.0 0.0 0.00 0.00 0.00 69 1014.0
20260905144909 86 160 0.0 0.0 0.00 0.00 0.00 70 1014.1
20260905144405 87 152 0.0 0.0 0.00 0.00 0.00 70 1014.1
20260905143904 86 153 0.0 0.0 0.00 0.00 0.00 69 1014.0
20260905143358 85 159 0.0 0.0 0.00 0.00 0.00 71 1014.1
20260905142857 85 165 0.0 0.0 0.00 0.00 0.00 71 1014.1
20260905142356 85 154 0.0 0.0 0.00 0.00 0.00 72 1013.9
20260905141852 84 159 0.0 0.0 0.00 0.00 0.00 73 1014.0
20260905141347 83 159 0.0 0.0 0.00 0.00 0.00 76 1014.1
20260905140843 82 163 0.0 0.0 0.00 0.00 0.00 77 1014.1
20260905140337 80 158 0.0 0.0 0.00 0.00 0.00 80 1014.5
20260905135836 79 158 0.0 0.0 0.00 0.00 0.00 82 1014.1
20260905135332 79 163 0.0 0.0 0.00 0.00 0.00 83 1014.2
20260905134827 78 165 0.0 0.0 0.00 0.00 0.00 83 1014.0
20260905134320 78 166 0.0 0.0 0.00 0.00 0.00 84 1014.1
20260905133814 77 166 0.0 0.0 0.00 0.00 0.00 85 1013.8
20260905133310 77 166 0.0 0.0 0.00 0.00 0.00 86 1013.9
20260905132809 76 163 0.0 0.0 0.00 0.00 0.00 88 1013.8
20260905132306 76 162 0.0 0.0 0.00 0.00 0.00 89 1013.8
20260905131759 75 162 0.0 0.0 0.00 0.00 0.00 89 1013.7
20260905131255 75 162 0.0 0.0 0.00 0.00 0.00 90 1013.7
20260905130749 75 162 0.0 0.0 0.00 0.00 0.00 90 1013.6
20260905130248 74 162 0.0 0.0 0.00 0.00 0.00 91 1013.5
20260905125744 74 162 0.0 0.0 0.00 0.00 0.00 92 1013.7
20260905125239 74 162 0.0 0.0 0.00 0.00 0.00 93 1013.4
20260905124736 73 156 0.0 0.0 0.00 0.00 0.00 93 1013.3
20260905124231 73 156 0.0 0.0 0.00 0.00 0.00 94 1013.1
20260905123726 73 156 0.0 0.0 0.00 0.00 0.00 94 1013.2
20260905123223 72 152 0.0 0.0 0.00 0.00 0.00 94 1013.4
20260905122723 72 151 0.0 0.0 0.00 0.00 0.00 94 1013.2
20260905122217 72 151 0.0 0.0 0.00 0.00 0.00 94 1013.4
20260905121712 72 151 0.0 0.0 0.00 0.00 0.00 94 1013.1
20260905121208 72 151 0.0 0.0 0.00 0.00 0.00 94 1013.1
20260905120707 72 150 0.0 0.0 0.00 0.00 0.00 94 1013.3
20260905120202 72 149 0.0 0.0 0.00 0.00 0.00 94 1013.3
20260905115702 72 155 0.0 0.0 0.00 0.00 0.00 94 1013.2
20260905115157 72 150 0.0 0.0 0.00 0.00 0.00 94 1013.1
20260905114656 72 145 0.0 0.0 0.00 0.00 0.00 94 1013.0
20260905114154 72 168 0.0 0.0 0.00 0.00 0.00 95 1013.0
20260905113648 72 175 0.0 0.0 0.00 0.00 0.00 94 1013.1
20260905113145 72 163 0.0 0.0 0.00 0.00 0.00 94 1013.0
20260905112639 72 158 0.0 0.0 0.00 0.00 0.00 94 1012.7
20260905112135 72 140 0.0 0.0 0.00 0.00 0.00 94 1012.8
20260905111635 72 162 0.0 0.0 0.00 0.00 0.00 94 1012.4
20260905111134 72 162 0.0 0.0 0.00 0.00 0.00 94 1012.6
20260905110633 72 162 0.0 0.0 0.00 0.00 0.00 94 1012.4
20260905110128 72 166 0.0 0.0 0.00 0.00 0.00 94 1012.3
20260905105624 72 156 0.0 0.0 0.00 0.00 0.00 94 1012.5
20260905105123 72 156 0.0 0.0 0.00 0.00 0.00 94 1012.4
20260905104618 72 156 0.0 0.0 0.00 0.00 0.00 94 1012.6
20260905104113 72 156 0.0 0.0 0.00 0.00 0.00 94 1012.4
20260905103608 73 156 0.0 0.0 0.00 0.00 0.00 94 1012.3
20260905103105 72 156 0.0 0.0 0.00 0.00 0.00 94 1012.3
20260905102600 72 158 0.0 0.0 0.00 0.00 0.00 94 1012.4
20260905102057 72 158 0.0 0.0 0.00 0.00 0.00 93 1012.4
20260905101554 73 158 0.0 0.0 0.00 0.00 0.00 93 1012.7
20260905101053 73 158 0.0 0.0 0.00 0.00 0.00 93 1012.4
20260905100549 73 158 0.0 0.0 0.00 0.00 0.00 93 1012.5
20260905100049 73 158 0.0 0.0 0.00 0.00 0.00 93 1012.4
20260905095543 73 158 0.0 0.0 0.00 0.00 0.00 93 1012.5
20260905095039 73 157 0.0 0.0 0.00 0.00 0.00 92 1012.6
20260905094534 73 157 0.0 0.0 0.00 0.00 0.00 92 1012.5
20260905094033 73 157 0.0 0.0 0.00 0.00 0.00 92 1012.6
20260905093527 73 157 0.0 0.0 0.00 0.00 0.00 92 1012.5
20260905093024 73 157 0.0 0.0 0.00 0.00 0.00 92 1012.4
20260905092524 73 157 0.0 0.0 0.00 0.00 0.00 92 1012.6
20260905092020 73 156 0.0 0.0 0.00 0.00 0.00 92 1012.4
20260905091513 73 156 0.0 0.0 0.00 0.00 0.00 92 1012.3
20260905091008 73 156 0.0 0.0 0.00 0.00 0.00 92 1012.5
20260905090502 73 157 0.0 0.0 0.00 0.00 0.00 92 1012.5
20260905090002 73 157 0.0 0.0 0.00 0.00 0.00 92 1012.5
20260905085501 73 157 0.0 0.0 0.00 0.00 0.00 92 1012.5
20260905084957 73 157 0.0 0.0 0.00 0.00 0.00 92 1012.3
20260905084456 73 160 0.0 0.0 0.00 0.00 0.00 92 1012.4
20260905083951 73 160 0.0 0.0 0.00 0.00 0.00 92 1012.4
20260905083447 74 161 0.0 0.0 0.00 0.00 0.00 92 1012.4
20260905082943 74 162 0.0 0.0 0.00 0.00 0.00 92 1012.5
20260905082439 74 165 0.0 0.0 0.00 0.00 0.00 92 1012.4
20260905081933 74 165 0.0 0.0 0.00 0.00 0.00 91 1012.5
20260905081428 74 158 0.0 0.0 0.00 0.00 0.00 91 1012.3
20260905080927 74 157 0.0 0.0 0.00 0.00 0.00 91 1012.5
20260905080421 74 156 0.0 0.0 0.00 0.00 0.00 91 1012.4
20260905075920 74 157 0.0 0.0 0.00 0.00 0.00 91 1012.3
20260905075415 74 161 0.0 0.0 0.00 0.00 0.00 91 1012.4
20260905074914 74 157 0.0 0.0 0.00 0.00 0.00 91 1012.4
20260905074410 74 161 0.0 0.0 0.00 0.00 0.00 91 1012.1
20260905073906 74 161 0.0 0.0 0.00 0.00 0.00 91 1012.2
20260905073401 74 161 0.0 0.0 0.00 0.00 0.00 91 1012.4
20260905072856 74 167 0.0 0.0 0.00 0.00 0.00 91 1012.2
20260905072350 75 166 0.0 0.0 0.00 0.00 0.00 90 1012.2
20260905071846 75 169 0.0 0.0 0.00 0.00 0.00 90 1012.4
20260905071337 75 179 0.0 0.0 0.00 0.00 0.00 90 1012.5
20260905070831 75 163 0.0 0.0 0.00 0.00 0.00 90 1012.6
20260905070328 75 160 0.0 0.0 0.00 0.00 0.00 89 1012.7
20260905065827 75 160 0.0 0.0 0.00 0.00 0.00 89 1012.7
20260905065325 75 160 0.0 0.0 0.00 0.00 0.00 88 1012.6
20260905064821 76 158 0.0 0.0 0.00 0.00 0.00 88 1012.4
20260905064316 75 158 0.0 0.0 0.00 0.00 0.00 88 1012.7
20260905063815 75 157 0.0 0.0 0.00 0.00 0.00 88 1012.6
20260905063311 76 159 0.0 0.0 0.00 0.00 0.00 87 1012.4
20260905062807 76 161 0.0 0.0 0.00 0.00 0.00 87 1012.9
20260905062307 76 160 0.0 0.0 0.00 0.00 0.00 87 1012.6
20260905061802 76 152 0.0 0.0 0.00 0.00 0.00 88 1012.6
20260905061256 76 161 0.0 0.0 0.00 0.00 0.00 87 1012.6
20260905060750 76 161 0.0 0.0 0.00 0.00 0.00 87 1012.6
20260905060248 76 161 0.0 0.0 0.00 0.00 0.00 87 1012.5
20260905055746 76 162 0.0 0.0 0.00 0.00 0.00 87 1012.6
20260905055241 76 162 0.0 0.0 0.00 0.00 0.00 87 1012.6
20260905054736 76 162 0.0 0.0 0.00 0.00 0.00 86 1012.6
20260905054232 77 162 0.0 0.0 0.00 0.00 0.00 86 1012.8
20260905053731 77 162 0.0 0.0 0.00 0.00 0.00 86 1012.6
20260905053227 77 162 0.0 0.0 0.00 0.00 0.00 85 1012.7
20260905052726 77 162 0.0 0.0 0.00 0.00 0.00 85 1012.7
20260905052222 77 162 0.0 0.0 0.00 0.00 0.00 85 1012.9
20260905051721 77 162 0.0 0.0 0.00 0.00 0.00 86 1012.6
20260905051218 77 165 0.0 0.0 0.00 0.00 0.00 86 1012.6
20260905050714 77 164 0.0 0.0 0.00 0.00 0.00 85 1012.9
20260905050211 77 163 0.0 0.0 0.00 0.00 0.00 85 1012.7
20260905045710 77 163 0.0 0.0 0.00 0.00 0.00 85 1012.5
20260905045206 78 162 0.0 0.0 0.00 0.00 0.00 84 1012.6
20260905044701 78 166 0.0 0.0 0.00 0.00 0.00 84 1012.6
20260905044200 78 166 0.0 0.0 0.00 0.00 0.00 83 1012.7
20260905043659 78 166 0.0 0.0 0.00 0.00 0.00 83 1012.6
20260905043154 78 166 0.0 0.0 0.00 0.00 0.00 83 1012.5
20260905042649 78 166 0.0 0.0 0.00 0.00 0.00 83 1012.6
20260905042148 78 166 0.0 0.0 0.00 0.00 0.00 82 1012.8
20260905041644 79 166 0.0 0.0 0.00 0.00 0.00 82 1012.5
20260905041139 79 166 0.0 0.0 0.00 0.00 0.00 81 1012.7
20260905040634 79 166 0.0 0.0 0.00 0.00 0.00 81 1012.4
20260905040133 79 166 0.0 0.0 0.00 0.00 0.00 80 1012.4
20260905035628 79 166 0.0 0.0 0.00 0.00 0.00 80 1012.4
20260905035125 79 167 0.0 0.0 0.00 0.00 0.00 80 1012.4
20260905034621 79 165 0.0 0.0 0.00 0.00 0.00 79 1012.5
20260905034120 80 169 0.0 0.0 0.00 0.00 0.00 78 1012.7
20260905033614 80 167 0.0 0.0 0.00 0.00 0.00 78 1012.6
20260905033110 80 160 0.0 0.0 0.00 0.00 0.00 77 1012.4
20260905032609 80 160 0.0 0.0 0.00 0.00 0.00 77 1012.5
20260905032109 80 160 0.0 0.0 0.00 0.00 0.00 76 1012.5
20260905031605 81 160 0.0 0.0 0.00 0.00 0.00 75 1012.4
20260905031105 81 160 0.0 0.0 0.00 0.00 0.00 75 1012.5
20260905030600 81 160 0.0 0.0 0.00 0.00 0.00 75 1012.3
20260905030055 81 155 0.0 0.0 0.00 0.00 0.00 75 1012.1
20260905025550 81 168 0.0 0.0 0.00 0.00 0.00 74 1012.5
20260905025047 81 170 0.0 0.0 0.00 0.00 0.00 74 1012.2
20260905024542 82 170 0.0 0.0 0.00 0.00 0.00 73 1012.4
20260905024037 82 173 0.0 0.0 0.00 0.00 0.00 73 1012.2
20260905023532 82 170 0.0 0.0 0.00 0.00 0.00 72 1012.2
20260905023026 82 173 0.0 0.0 0.00 0.00 0.00 71 1012.2
20260905022521 83 168 0.0 0.0 0.00 0.00 0.00 70 1012.1
20260905022016 83 169 0.0 0.0 0.00 0.00 0.00 70 1011.9
20260905021515 83 169 0.0 0.0 0.00 0.00 0.00 69 1012.0
20260905021011 83 168 0.0 0.0 0.00 0.00 0.00 69 1012.0
20260905020511 84 167 0.0 0.0 0.00 0.00 0.00 68 1011.8
20260905020006 84 167 0.0 0.0 0.00 0.00 0.00 68 1011.6
20260905015503 84 167 0.0 0.0 0.00 0.00 0.00 67 1011.7
20260905015004 84 167 0.0 0.0 0.00 0.00 0.00 67 1011.5
20260905014459 85 168 0.0 0.0 0.00 0.00 0.00 66 1011.5
20260905013954 85 168 0.0 0.0 0.00 0.00 0.00 65 1011.3
20260905013450 85 169 0.0 0.0 0.00 0.00 0.00 65 1011.3
20260905012945 86 170 0.0 0.0 0.00 0.00 0.00 64 1011.2
20260905012440 86 170 0.0 0.0 0.00 0.00 0.00 64 1011.0
20260905011937 86 170 0.0 0.0 0.00 0.00 0.00 63 1011.1
20260905011432 86 170 0.0 0.0 0.00 0.00 0.00 62 1011.1
20260905010928 87 169 0.0 0.0 0.00 0.00 0.00 62 1011.1
20260905010423 87 174 0.0 0.0 0.00 0.00 0.00 61 1011.1
20260905005919 88 172 0.0 0.0 0.00 0.00 0.00 60 1011.0
20260905005415 88 168 0.0 0.0 0.00 0.00 0.00 60 1011.1
20260905004909 88 169 0.0 0.0 0.00 0.00 0.00 59 1011.0
20260905004409 89 177 0.0 0.0 0.00 0.00 0.00 58 1011.0
20260905003905 90 170 0.0 0.0 0.00 0.00 0.00 57 1011.0
20260905003400 91 169 0.0 0.0 0.00 0.00 0.00 56 1010.9
20260905002856 92 163 0.0 0.0 0.00 0.00 0.00 53 1010.8
20260905002355 93 162 0.0 0.0 0.00 0.00 0.00 50 1011.1
20260905001845 94 168 0.0 0.0 0.00 0.00 0.00 48 1011.1
20260905001344 94 173 0.0 0.0 0.00 0.00 0.00 47 1011.2
20260905000840 95 183 1.0 1.0 0.00 0.00 0.00 46 1011.1
20260905000334 95 169 0.0 0.0 0.00 0.00 0.00 46 1011.2
20260904235830 95 202 2.0 2.0 0.00 0.00 0.00 45 1011.1
20260904235326 95 197 1.0 2.0 0.00 0.00 0.00 45 1011.2
20260904234821 96 169 1.0 2.0 0.00 0.00 0.00 45 1011.1
20260904234321 96 225 3.0 3.0 0.00 0.00 0.00 44 1010.9
20260904233817 96 218 2.0 2.0 0.00 0.00 0.00 45 1011.1
20260904233312 96 170 2.0 2.0 0.00 0.00 0.00 45 1011.1
20260904232809 96 140 2.0 3.0 0.00 0.00 0.00 45 1011.2
20260904232306 96 142 4.0 5.0 0.00 0.00 0.00 44 1011.1
20260904231800 96 218 5.0 7.0 0.00 0.00 0.00 44 1011.2
20260904231255 96 159 1.0 1.0 0.00 0.00 0.00 45 1011.2
20260904230751 97 158 1.0 1.0 0.00 0.00 0.00 45 1011.3
20260904230249 97 200 3.0 3.0 0.00 0.00 0.00 45 1011.4
20260904225744 97 183 1.0 1.0 0.00 0.00 0.00 45 1011.2
20260904225238 97 178 1.0 2.0 0.00 0.00 0.00 45 1011.2
20260904224737 97 202 4.0 5.0 0.00 0.00 0.00 45 1011.2
20260904224233 97 204 3.0 5.0 0.00 0.00 0.00 44 1011.5
20260904223731 97 194 1.0 1.0 0.00 0.00 0.00 45 1011.4
20260904223221 98 183 3.0 5.0 0.00 0.00 0.00 44 1011.4
20260904222717 97 206 1.0 1.0 0.00 0.00 0.00 44 1011.0
20260904222212 98 214 3.0 5.0 0.00 0.00 0.00 44 1011.3
20260904221712 98 190 4.0 5.0 0.00 0.00 0.00 44 1011.2
20260904221207 98 215 6.0 7.0 0.00 0.00 0.00 44 1011.5
20260904220701 99 104 4.0 6.0 0.00 0.00 0.00 43 1011.2
20260904220157 100 208 0.0 1.0 0.00 0.00 0.00 42 1011.5